Sheldon, IA

7:26 PM CDT on October 21, 2017 (GMT -0500)
Sheldon Municipal

Weather History for KSHL - June, 2013

Change the Weather History Date:

Wednesday, June 19, 2013

  Actual Average Record
Temperature  
Mean Temperature 74 °F -  
Max Temperature 87 °F 80 °F 100 °F (1988)
Min Temperature 62 °F 56 °F 41 °F (2004)
Cooling Degree Days 10    
Growing Degree Days 24 (Base 50)    
Moisture  
Dew Point 59 °F    
Average Humidity 59    
Maximum Humidity 88    
Minimum Humidity 37    
Precipitation  
Precipitation 0.00 in - - ()
Sea Level Pressure  
Sea Level Pressure 29.97 in    
Wind  
Wind Speed 10 mph (SSE)    
Max Wind Speed 23 mph    
Max Gust Speed 29 mph    
Visibility 10 miles    
Events      
Averages and records for this station are not official NWS values.
T = Trace of Precipitation, MM = Missing Value Source: NWS Daily Summary

Daily Weather History Graph

Daily Weather History Graph

Search for Another Location

Airport or City:

Trip Planner

Search our weather history database for the weather conditions in past years. The results will help you decide how hot, cold, wet, or windy it might be!

Date:

Astronomy

Jun. 19, 2013 Rise Set
Actual Time 5:43 AM CDT 9:06 PM CDT
Civil Twilight 5:07 AM CDT 9:42 PM CDT
Nautical Twilight 4:21 AM CDT 10:28 PM CDT
Astronomical Twilight 3:23 AM CDT 11:26 PM CDT
Moon 4:56 PM CDT (6/19) 2:33 AM CDT (6/19)
Length of Visible Light 16h 34m
Length of Day
15h 23m
Waxing Gibbous, 80% of the Moon is Illuminated
Jun 19
Waxing Gibbous
Jun 23
Full
Jun 29
Last Quarter
Jul 8
New
Jul 15
First Quarter

Hourly Weather History & Observations

Time (CDT) Temp. Heat Index Dew Point Humidity Pressure Visibility Wind Dir Wind Speed Gust Speed Precip Events Conditions
12:15 AM 66.2 °F - 55.4 °F 68% 30.02 in 10.0 mi ESE 6.9 mph - N/A   Unknown
12:35 AM 66.2 °F - 57.2 °F 73% 30.01 in 10.0 mi ESE 6.9 mph - N/A   Clear
12:55 AM 64.4 °F - 57.2 °F 77% 30.01 in 10.0 mi ESE 5.8 mph - N/A   Unknown
1:15 AM 64.4 °F - 57.2 °F 77% 30.02 in 10.0 mi ESE 6.9 mph - N/A   Unknown
1:35 AM 64.4 °F - 55.4 °F 73% 30.02 in 10.0 mi SE 5.8 mph - N/A   Unknown
1:55 AM 64.4 °F - 55.4 °F 73% 30.01 in 10.0 mi ESE 8.1 mph - N/A   Unknown
2:15 AM 64.4 °F - 55.4 °F 73% 30.00 in 10.0 mi ESE 8.1 mph - N/A   Unknown
2:35 AM 64.4 °F - 57.2 °F 77% 30.00 in 10.0 mi ESE 6.9 mph - N/A   Clear
2:55 AM 64.4 °F - 57.2 °F 77% 29.99 in 10.0 mi ESE 8.1 mph - N/A   Clear
3:15 AM 64.4 °F - 57.2 °F 77% 30.00 in 10.0 mi SE 6.9 mph - N/A   Clear
3:35 AM 64.4 °F - 57.2 °F 77% 29.99 in - SE 10.4 mph - N/A   Unknown
3:55 AM 64.4 °F - 57.2 °F 77% 29.99 in 10.0 mi SE 9.2 mph - N/A   Clear
4:15 AM 64.4 °F - 57.2 °F 77% 29.99 in 10.0 mi SE 8.1 mph - N/A   Clear
4:35 AM 64.4 °F - 57.2 °F 77% 29.99 in 10.0 mi ESE 9.2 mph - N/A   Clear
4:55 AM 64.4 °F - 57.2 °F 77% 29.98 in 10.0 mi SE 9.2 mph - N/A   Clear
5:15 AM 64.4 °F - 57.2 °F 77% 30.00 in 10.0 mi SE 6.9 mph - N/A   Unknown
5:35 AM 62.6 °F - 59.0 °F 88% 30.01 in 10.0 mi ESE 4.6 mph - N/A   Clear
5:55 AM 62.6 °F - 59.0 °F 88% 30.01 in 10.0 mi ESE 3.5 mph - N/A   Clear
6:15 AM 62.6 °F - 59.0 °F 88% 30.02 in 10.0 mi Variable 4.6 mph - N/A   Partly Cloudy
6:35 AM 62.6 °F - 59.0 °F 88% 30.02 in 10.0 mi SE 4.6 mph - N/A   Scattered Clouds
6:55 AM 64.4 °F - 59.0 °F 83% 30.02 in 10.0 mi SE 3.5 mph - N/A   Scattered Clouds
7:15 AM 64.4 °F - 60.8 °F 88% 30.03 in 10.0 mi ESE 4.6 mph - N/A   Clear
7:35 AM 66.2 °F - 60.8 °F 83% 30.03 in 10.0 mi SE 4.6 mph - N/A   Clear
7:55 AM 68.0 °F - 60.8 °F 78% 30.03 in 10.0 mi SE 5.8 mph - N/A   Clear
8:15 AM 69.8 °F - 60.8 °F 73% 30.03 in 10.0 mi SSE 6.9 mph - N/A   Clear
8:35 AM 71.6 °F - 60.8 °F 69% 30.03 in 10.0 mi SSE 9.2 mph - N/A   Partly Cloudy
8:55 AM 71.6 °F - 60.8 °F 69% 30.02 in 10.0 mi SSE 6.9 mph - N/A   Scattered Clouds
9:15 AM 75.2 °F - 60.8 °F 61% 30.02 in 10.0 mi SE 6.9 mph - N/A   Clear
9:35 AM 77.0 °F - 60.8 °F 57% 30.01 in 10.0 mi SSE 8.1 mph - N/A   Clear
9:55 AM 77.0 °F - 60.8 °F 57% 30.00 in 9.0 mi South 9.2 mph - N/A   Clear
10:15 AM 78.8 °F - 59.0 °F 51% 30.00 in 10.0 mi SSE 11.5 mph - N/A   Clear
10:35 AM 80.6 °F 80.8 °F 57.2 °F 45% 29.99 in 10.0 mi SSE 15.0 mph - N/A   Clear
10:55 AM 80.6 °F 80.8 °F 57.2 °F 45% 29.99 in 10.0 mi South 13.8 mph - N/A   Partly Cloudy
11:15 AM 82.4 °F 82.0 °F 57.2 °F 42% 29.99 in 10.0 mi SSE 16.1 mph 23.0 mph N/A   Partly Cloudy
11:35 AM 82.4 °F 81.7 °F 55.4 °F 39% 29.99 in 10.0 mi South 17.3 mph 24.2 mph N/A   Clear
11:55 AM 84.2 °F 83.0 °F 55.4 °F 37% 29.98 in 10.0 mi SSE 18.4 mph - N/A   Partly Cloudy
12:15 PM 82.4 °F 82.0 °F 57.2 °F 42% 29.98 in 10.0 mi SSE 17.3 mph 24.2 mph N/A   Partly Cloudy
12:35 PM 82.4 °F 82.0 °F 57.2 °F 42% 29.98 in 10.0 mi South 17.3 mph 24.2 mph N/A   Clear
12:55 PM 82.4 °F 82.0 °F 57.2 °F 42% 29.97 in 10.0 mi SE 17.3 mph - N/A   Partly Cloudy
1:15 PM 84.2 °F 83.5 °F 57.2 °F 40% 29.97 in 10.0 mi SSE 17.3 mph 23.0 mph N/A   Partly Cloudy
1:35 PM 84.2 °F 83.0 °F 55.4 °F 37% 29.96 in 10.0 mi SSE 13.8 mph 27.6 mph N/A   Mostly Cloudy
1:55 PM 84.2 °F 83.8 °F 59.0 °F 42% 29.96 in 10.0 mi SSE 17.3 mph 24.2 mph N/A   Scattered Clouds
2:15 PM 84.2 °F 83.8 °F 59.0 °F 42% 29.95 in 10.0 mi SSE 18.4 mph - N/A   Mostly Cloudy
2:35 PM 84.2 °F 84.4 °F 60.8 °F 45% 29.94 in 10.0 mi SE 18.4 mph - N/A   Scattered Clouds
2:55 PM 84.2 °F 83.8 °F 59.0 °F 42% 29.94 in 10.0 mi SSE 17.3 mph 24.2 mph N/A   Partly Cloudy
3:15 PM 84.2 °F 84.4 °F 60.8 °F 45% 29.94 in 10.0 mi SSE 19.6 mph 26.5 mph N/A   Scattered Clouds
3:35 PM 86.0 °F 86.1 °F 60.8 °F 43% 29.93 in 10.0 mi SSE 18.4 mph - N/A   Scattered Clouds
3:55 PM 86.0 °F 85.4 °F 59.0 °F 40% 29.93 in 10.0 mi South 17.3 mph 24.2 mph N/A   Partly Cloudy
4:15 PM 86.0 °F 85.4 °F 59.0 °F 40% 29.92 in 10.0 mi SSE 16.1 mph 24.2 mph N/A   Clear
4:35 PM 86.0 °F 85.4 °F 59.0 °F 40% 29.92 in 10.0 mi South 17.3 mph 24.2 mph N/A   Partly Cloudy
4:55 PM 87.8 °F 87.1 °F 59.0 °F 38% 29.91 in 10.0 mi SSE 23.0 mph 28.8 mph N/A   Mostly Cloudy
5:15 PM 86.0 °F 85.4 °F 59.0 °F 40% 29.91 in 10.0 mi SSE 13.8 mph 23.0 mph N/A   Scattered Clouds
5:35 PM 86.0 °F 85.4 °F 59.0 °F 40% 29.91 in 10.0 mi South 13.8 mph 21.9 mph N/A   Scattered Clouds
5:55 PM 86.0 °F 85.4 °F 59.0 °F 40% 29.90 in 10.0 mi SSE 15.0 mph 27.6 mph N/A   Mostly Cloudy
6:15 PM 86.0 °F 86.1 °F 60.8 °F 43% 29.90 in 8.0 mi South 19.6 mph - N/A   Scattered Clouds
6:35 PM 84.2 °F 83.8 °F 59.0 °F 42% 29.90 in 10.0 mi South 18.4 mph - N/A   Clear
6:55 PM 84.2 °F 84.4 °F 60.8 °F 45% 29.90 in 10.0 mi South 18.4 mph 25.3 mph N/A   Scattered Clouds
7:15 PM 84.2 °F 84.4 °F 60.8 °F 45% 29.90 in 10.0 mi SSE 19.6 mph - N/A   Partly Cloudy
7:35 PM 84.2 °F 84.4 °F 60.8 °F 45% 29.91 in 10.0 mi South 17.3 mph - N/A   Clear
7:55 PM 84.2 °F 84.4 °F 60.8 °F 45% 29.90 in 10.0 mi SSE 19.6 mph - N/A   Clear
8:15 PM 82.4 °F 82.9 °F 60.8 °F 48% 29.90 in 10.0 mi South 19.6 mph 26.5 mph N/A   Clear
8:35 PM 82.4 °F 82.9 °F 60.8 °F 48% 29.90 in 10.0 mi South 16.1 mph 23.0 mph N/A   Clear
8:55 PM 80.6 °F 81.5 °F 60.8 °F 51% 29.91 in 10.0 mi SSE 15.0 mph - N/A   Clear
9:15 PM 78.8 °F - 60.8 °F 54% 29.91 in 10.0 mi South 13.8 mph - N/A   Clear
9:35 PM 78.8 °F - 60.8 °F 54% 29.92 in 10.0 mi SSE 11.5 mph 17.3 mph N/A   Clear
9:55 PM 77.0 °F - 62.6 °F 61% 29.93 in 10.0 mi SSE 10.4 mph - N/A   Unknown
10:15 PM 77.0 °F - 62.6 °F 61% 29.94 in 10.0 mi SSE 11.5 mph - N/A   Unknown
10:35 PM 77.0 °F - 62.6 °F 61% 29.94 in 10.0 mi SSE 11.5 mph - N/A   Clear
10:55 PM 75.2 °F - 62.6 °F 65% 29.94 in 10.0 mi SSE 12.7 mph - N/A   Unknown
11:15 PM 75.2 °F - 62.6 °F 65% 29.94 in 10.0 mi SSE 15.0 mph - N/A   Unknown
11:35 PM 75.2 °F - 62.6 °F 65% 29.95 in 10.0 mi SSE 13.8 mph - N/A   Unknown
11:55 PM 73.4 °F - 64.4 °F 73% 29.95 in 10.0 mi SSE 15.0 mph - N/A   Unknown